Muskogee, OK

2:11 PM CDT on May 21, 2018 (GMT -0500)
Davis

Weather History for KMKO - September, 2012

Change the Weather History Date:

Thursday, September 27, 2012

  Actual Average Record
Temperature  
Mean Temperature 71 °F -  
Max Temperature 79 °F 79 °F 91 °F (1998)
Min Temperature 64 °F 54 °F 42 °F (2000)
Cooling Degree Days 6    
Growing Degree Days 21 (Base 50)    
Moisture  
Dew Point 65 °F    
Average Humidity 86    
Maximum Humidity 97    
Minimum Humidity 64    
Precipitation  
Precipitation 0.29 in - - ()
Sea Level Pressure  
Sea Level Pressure 30.08 in    
Wind  
Wind Speed 9 mph (WNW)    
Max Wind Speed 24 mph    
Max Gust Speed 33 mph    
Visibility 10 miles    
Events Rain , Thunderstorm    
Averages and records for this station are not official NWS values.
T = Trace of Precipitation, MM = Missing Value Source: NWS Daily Summary

Daily Weather History Graph

Daily Weather History Graph

Search for Another Location

Airport or City:

Astronomy

Sep. 27, 2012 Rise Set
Actual Time 7:13 AM CDT 7:10 PM CDT
Civil Twilight 6:48 AM CDT 7:35 PM CDT
Nautical Twilight 6:18 AM CDT 8:05 PM CDT
Astronomical Twilight 5:48 AM CDT 8:35 PM CDT
Moon 5:39 PM CDT (9/27) 4:47 AM CDT (9/27)
Length of Visible Light 12h 47m
Length of Day
11h 56m
Waxing Gibbous, 94% of the Moon is Illuminated
Sep 27
Waxing Gibbous
Sep 29
Full
Oct 8
Last Quarter
Oct 15
New
Oct 21
First Quarter

Hourly Weather History & Observations

Time (CDT) Temp. Dew Point Humidity Pressure Visibility Wind Dir Wind Speed Gust Speed Precip Events Conditions
12:48 AM 66.2 °F 64.4 °F 94% 30.06 in 10.0 mi WSW 6.9 mph - 0.00 in Rain , Thunderstorm Light Rain
12:53 AM 66.0 °F 64.9 °F 96% 30.05 in 10.0 mi WNW 9.2 mph - 0.00 in Rain , Thunderstorm Light Rain
1:19 AM 66.2 °F 64.4 °F 94% 30.08 in 10.0 mi NW 4.6 mph - 0.01 in Rain , Thunderstorm Light Rain
1:53 AM 66.0 °F 64.0 °F 93% 30.09 in 8.0 mi WNW 12.7 mph - 0.07 in Rain , Thunderstorm Light Rain
2:04 AM 66.2 °F 64.4 °F 94% 30.11 in 10.0 mi West 15.0 mph - 0.01 in Rain Light Rain
2:53 AM 66.0 °F 64.0 °F 93% 30.04 in 10.0 mi NW 19.6 mph - 0.06 in Rain Light Rain
3:20 AM 66.2 °F 62.6 °F 88% 30.06 in 10.0 mi WNW 18.4 mph 29.9 mph 0.01 in Rain , Thunderstorm Light Rain
3:35 AM 66.2 °F 62.6 °F 88% 30.07 in 10.0 mi West 21.9 mph 27.6 mph 0.02 in Rain Light Rain
3:53 AM 66.0 °F 63.0 °F 90% 30.08 in 10.0 mi West 24.2 mph 33.4 mph 0.04 in Rain Light Rain
4:14 AM 66.2 °F 62.6 °F 88% 30.11 in 10.0 mi West 17.3 mph 25.3 mph 0.02 in Rain , Thunderstorm Light Thunderstorms and Rain
4:29 AM 66.2 °F 62.6 °F 88% 30.10 in 8.0 mi West 12.7 mph - 0.04 in Rain Light Rain
4:40 AM 66.2 °F 62.6 °F 88% 30.09 in 7.0 mi SW 11.5 mph - 0.06 in Rain , Thunderstorm Light Rain
4:53 AM 66.0 °F 63.0 °F 90% 30.07 in 6.0 mi WNW 9.2 mph - 0.10 in Rain Rain
5:53 AM 64.9 °F 64.0 °F 97% 30.09 in 10.0 mi North 8.1 mph - 0.02 in Rain Light Rain
8:53 AM 66.0 °F 64.9 °F 96% 30.11 in - Calm Calm - N/A   Clear
9:53 AM 68.0 °F 64.9 °F 90% 30.13 in - North 4.6 mph - N/A   Mostly Cloudy
10:53 AM 70.0 °F 66.0 °F 87% 30.13 in - NNE 6.9 mph - N/A   Mostly Cloudy
11:53 AM 73.0 °F 66.0 °F 79% 30.12 in - North 8.1 mph - N/A   Mostly Cloudy
1:53 PM 77.0 °F 64.9 °F 66% 30.09 in 10.0 mi Calm Calm - N/A   Mostly Cloudy
2:53 PM 77.0 °F 64.9 °F 66% 30.06 in 10.0 mi Calm Calm - 0.00 in   Mostly Cloudy
3:53 PM 78.1 °F 64.9 °F 64% 30.06 in 10.0 mi WNW 5.8 mph - N/A   Clear
4:53 PM 77.0 °F 64.9 °F 66% 30.06 in 10.0 mi NNW 9.2 mph - N/A   Scattered Clouds
5:53 PM 75.9 °F 64.9 °F 69% 30.05 in 10.0 mi NW 3.5 mph - N/A   Mostly Cloudy
6:53 PM 75.0 °F 66.0 °F 73% 30.05 in 10.0 mi Calm Calm - N/A   Clear
7:53 PM 72.0 °F 68.0 °F 87% 30.07 in 10.0 mi Calm Calm - N/A   Mostly Cloudy
8:53 PM 71.1 °F 69.1 °F 93% 30.08 in 10.0 mi Calm Calm - N/A   Mostly Cloudy
9:53 PM 70.0 °F 68.0 °F 93% 30.07 in 10.0 mi SE 6.9 mph - N/A   Overcast
10:53 PM 70.0 °F 68.0 °F 93% 30.08 in 10.0 mi SE 5.8 mph - N/A   Clear
11:53 PM 68.0 °F 66.9 °F 96% 30.09 in 10.0 mi SSE 4.6 mph - N/A   Mostly Cloudy